Powrót do katalogu

FENGYUN 1C DEB

AktywnySSO
NORAD 32459·DEBRIS·🇨🇳 China

Wystrzelony May 10, 1999 z Taiyuan Satellite Launch Center

Loading…

Następne Przeloty (najbliższe 24 godziny)

TLE

ŚwieżeSource: Space-Track

Epoka: Sep 14, 2026, 06:10 UTC

1 32459U 99025DBX 26257.25748530  .00001572  00000-0  36146-3 0  9992
2 32459  98.2935 269.6930 0211540  71.5881 290.8183 14.43965121985255

Śledź FENGYUN 1C DEB w czasie rzeczywistym z AllMySat

Download on the App Store